TimeEDT,TemperatureF,Dew PointF,Humidity,Sea Level PressureIn,VisibilityMPH,Wind Direction,Wind SpeedMPH,Gust SpeedMPH,PrecipitationIn,Events,Conditions,WindDirDegrees,DateUTC
12:15 AM,44.6,42.8,93,30.28,10.0,Calm,Calm,-,N/A,,Clear,0,2012-10-26 04:15:00
12:35 AM,44.6,42.8,93,30.28,10.0,Calm,Calm,-,N/A,,Clear,0,2012-10-26 04:35:00
12:55 AM,42.8,42.8,100,30.28,10.0,Calm,Calm,-,N/A,,Clear,0,2012-10-26 04:55:00
1:15 AM,42.8,42.8,100,30.28,10.0,Calm,Calm,-,N/A,,Clear,0,2012-10-26 05:15:00
1:35 AM,42.8,41.0,93,30.27,10.0,Calm,Calm,-,N/A,,Clear,0,2012-10-26 05:35:00
1:55 AM,42.8,41.0,93,30.27,10.0,SW,3.5,-,N/A,,Clear,230,2012-10-26 05:55:00
2:15 AM,42.8,39.2,87,30.27,10.0,Calm,Calm,-,N/A,,Clear,0,2012-10-26 06:15:00
2:35 AM,42.8,41.0,93,30.27,10.0,Calm,Calm,-,N/A,,Clear,0,2012-10-26 06:35:00
2:55 AM,41.0,39.2,93,30.27,10.0,WSW,3.5,-,N/A,,Clear,240,2012-10-26 06:55:00
3:15 AM,41.0,39.2,93,30.27,10.0,Calm,Calm,-,N/A,,Clear,0,2012-10-26 07:15:00
3:35 AM,41.0,39.2,93,30.26,10.0,Calm,Calm,-,N/A,,Clear,0,2012-10-26 07:35:00
3:55 AM,41.0,39.2,93,30.26,10.0,Calm,Calm,-,N/A,,Clear,0,2012-10-26 07:55:00
4:15 AM,41.0,39.2,93,30.26,10.0,Calm,Calm,-,N/A,,Clear,0,2012-10-26 08:15:00
4:35 AM,41.0,39.2,93,30.26,10.0,Calm,Calm,-,N/A,,Clear,0,2012-10-26 08:35:00
4:55 AM,39.2,39.2,100,30.27,10.0,Calm,Calm,-,N/A,,Scattered Clouds,0,2012-10-26 08:55:00
5:15 AM,39.2,39.2,100,30.26,10.0,Calm,Calm,-,N/A,,Partly Cloudy,0,2012-10-26 09:15:00
5:35 AM,39.2,39.2,100,30.26,10.0,Calm,Calm,-,N/A,,Clear,0,2012-10-26 09:35:00
5:55 AM,39.2,39.2,100,30.26,10.0,Calm,Calm,-,N/A,,Clear,0,2012-10-26 09:55:00
6:15 AM,39.2,37.4,93,30.26,10.0,Calm,Calm,-,N/A,,Clear,0,2012-10-26 10:15:00
6:35 AM,39.2,37.4,93,30.25,10.0,Calm,Calm,-,N/A,,Clear,0,2012-10-26 10:35:00
6:55 AM,39.2,37.4,93,30.25,10.0,Calm,Calm,-,N/A,,Clear,0,2012-10-26 10:55:00
7:15 AM,39.2,37.4,93,30.25,10.0,Calm,Calm,-,N/A,,Clear,0,2012-10-26 11:15:00
7:35 AM,39.2,37.4,93,30.25,10.0,Calm,Calm,-,N/A,,Clear,0,2012-10-26 11:35:00
7:55 AM,41.0,39.2,93,30.26,10.0,Calm,Calm,-,N/A,,Clear,0,2012-10-26 11:55:00
8:15 AM,44.6,44.6,100,30.26,10.0,Calm,Calm,-,N/A,,Clear,0,2012-10-26 12:15:00
8:35 AM,48.2,46.4,93,30.26,10.0,Calm,Calm,-,N/A,,Clear,0,2012-10-26 12:35:00
8:55 AM,51.8,48.2,88,30.26,10.0,Calm,Calm,-,N/A,,Clear,0,2012-10-26 12:55:00
9:55 AM,59.0,51.8,77,30.27,10.0,South,3.5,-,N/A,,Clear,190,2012-10-26 13:55:00
10:35 AM,62.6,50.0,63,30.27,10.0,South,3.5,-,N/A,,Clear,180,2012-10-26 14:35:00
10:55 AM,62.6,50.0,63,30.26,10.0,Calm,Calm,-,N/A,,Clear,0,2012-10-26 14:55:00
11:15 AM,64.4,50.0,59,30.25,10.0,South,4.6,-,N/A,,Clear,190,2012-10-26 15:15:00
11:35 AM,64.4,51.8,64,30.24,10.0,South,4.6,-,N/A,,Clear,180,2012-10-26 15:35:00
11:55 AM,64.4,51.8,64,30.23,10.0,WSW,5.8,-,N/A,,Clear,240,2012-10-26 15:55:00
12:15 PM,64.4,51.8,64,30.22,10.0,SSE,3.5,-,N/A,,Clear,150,2012-10-26 16:15:00
12:35 PM,64.4,51.8,64,30.22,10.0,East,6.9,-,N/A,,Clear,100,2012-10-26 16:35:00
12:55 PM,64.4,51.8,64,30.21,10.0,East,9.2,-,N/A,,Clear,100,2012-10-26 16:55:00
1:15 PM,64.4,50.0,59,30.20,10.0,East,10.4,-,N/A,,Clear,100,2012-10-26 17:15:00
1:35 PM,64.4,50.0,59,30.20,10.0,ESE,10.4,-,N/A,,Clear,110,2012-10-26 17:35:00
1:55 PM,64.4,48.2,56,30.19,10.0,ESE,9.2,-,N/A,,Clear,110,2012-10-26 17:55:00
2:15 PM,64.4,48.2,56,30.19,10.0,ESE,9.2,-,N/A,,Clear,110,2012-10-26 18:15:00
2:35 PM,64.4,46.4,52,30.18,10.0,ESE,8.1,-,N/A,,Clear,110,2012-10-26 18:35:00
2:55 PM,64.4,42.8,45,30.17,10.0,ESE,10.4,-,N/A,,Clear,110,2012-10-26 18:55:00
3:15 PM,64.4,41.0,42,30.17,10.0,ESE,8.1,-,N/A,,Clear,120,2012-10-26 19:15:00
3:35 PM,62.6,42.8,48,30.17,10.0,ESE,6.9,-,N/A,,Clear,120,2012-10-26 19:35:00
3:55 PM,62.6,44.6,52,30.17,10.0,ESE,6.9,-,N/A,,Clear,120,2012-10-26 19:55:00
4:15 PM,62.6,46.4,55,30.16,10.0,ESE,5.8,-,N/A,,Clear,110,2012-10-26 20:15:00
4:35 PM,62.6,48.2,59,30.15,10.0,Calm,Calm,-,N/A,,Clear,0,2012-10-26 20:35:00
4:55 PM,64.4,48.2,56,30.14,10.0,Calm,Calm,-,N/A,,Clear,0,2012-10-26 20:55:00
5:15 PM,62.6,48.2,59,30.14,10.0,SE,5.8,-,N/A,,Clear,130,2012-10-26 21:15:00
5:35 PM,60.8,48.2,63,30.14,10.0,SSE,4.6,-,N/A,,Clear,150,2012-10-26 21:35:00
5:55 PM,60.8,46.4,59,30.14,10.0,SE,4.6,-,N/A,,Clear,130,2012-10-26 21:55:00
6:15 PM,59.0,46.4,63,30.15,10.0,SE,3.5,-,N/A,,Clear,140,2012-10-26 22:15:00
6:35 PM,57.2,46.4,67,30.15,10.0,South,3.5,-,N/A,,Clear,170,2012-10-26 22:35:00
6:55 PM,55.4,46.4,72,30.16,10.0,South,3.5,-,N/A,,Clear,180,2012-10-26 22:55:00
7:15 PM,53.6,46.4,77,30.16,10.0,Calm,Calm,-,N/A,,Clear,0,2012-10-26 23:15:00
7:35 PM,53.6,46.4,77,30.16,10.0,South,3.5,-,N/A,,Clear,190,2012-10-26 23:35:00
7:55 PM,53.6,46.4,77,30.16,10.0,SSW,3.5,-,N/A,,Clear,200,2012-10-26 23:55:00
8:15 PM,53.6,46.4,77,30.17,10.0,Calm,Calm,-,N/A,,Clear,0,2012-10-27 00:15:00
8:35 PM,51.8,46.4,82,30.17,10.0,Calm,Calm,-,N/A,,Clear,0,2012-10-27 00:35:00
8:55 PM,51.8,46.4,82,30.16,10.0,Calm,Calm,-,N/A,,Clear,0,2012-10-27 00:55:00
9:15 PM,51.8,46.4,82,30.17,10.0,SSW,3.5,-,N/A,,Clear,210,2012-10-27 01:15:00
9:35 PM,51.8,48.2,88,30.17,10.0,Calm,Calm,-,N/A,,Clear,0,2012-10-27 01:35:00
9:55 PM,50.0,46.4,87,30.17,10.0,Calm,Calm,-,N/A,,Clear,0,2012-10-27 01:55:00
10:15 PM,48.2,46.4,93,30.16,10.0,SSW,3.5,-,N/A,,Clear,210,2012-10-27 02:15:00
10:35 PM,51.8,48.2,88,30.16,10.0,SW,3.5,-,N/A,,Clear,230,2012-10-27 02:35:00
10:55 PM,51.8,48.2,88,30.16,10.0,SW,3.5,-,N/A,,Clear,230,2012-10-27 02:55:00
11:15 PM,51.8,48.2,88,30.16,10.0,SW,4.6,-,N/A,,Clear,230,2012-10-27 03:15:00
11:35 PM,51.8,48.2,88,30.15,10.0,SW,4.6,-,N/A,,Clear,230,2012-10-27 03:35:00
11:55 PM,51.8,48.2,88,30.15,10.0,SW,3.5,-,N/A,,Clear,230,2012-10-27 03:55:00